[Date Prev][Date Next][Thread Prev][Thread Next] - [Date Index][Thread Index][Author Index]
2 Line ISS Keps 5-29
- Subject: [sarex] 2 Line ISS Keps 5-29
- From: "Dave Larsen PhD" <doc@xxxxxxxxxxx>
- Date: Wed, 29 May 2002 06:29:42 -0700
ISS
1 25544U 98067A 02149.44941133 .00024925 00000-0 30681-3 0 5062
2 25544 51.6350 147.1434 0006726 126.9172 33.2797 15.60056279201101
----
Via the sarex mailing list at AMSAT.ORG courtesy of AMSAT-NA.
To unsubscribe, send "unsubscribe sarex" to Majordomo@amsat.org
AMSAT Home